Ohio State University, OH

9:18 PM EDT on July 23, 2017 (GMT -0400)
Ohio State University

Weather History for KOSU - February, 2012

Change the Weather History Date:

Tuesday, February 21, 2012

  Actual Average Record
Temperature  
Mean Temperature 40 °F -  
Max Temperature 48 °F 39 °F 66 °F (1997)
Min Temperature 33 °F 24 °F 3 °F (2008)
Degree Days  
Heating Degree Days 24    
Moisture  
Dew Point 31 °F    
Average Humidity 70    
Maximum Humidity 86    
Minimum Humidity 52    
Precipitation  
Precipitation 0.03 in - - ()
Sea Level Pressure  
Sea Level Pressure 29.88 in    
Wind  
Wind Speed 12 mph (South)    
Max Wind Speed 20 mph    
Max Gust Speed 29 mph    
Visibility 10 miles    
Events Rain    
Averages and records for this station are not official NWS values.
T = Trace of Precipitation, MM = Missing Value Source: NWS Daily Summary

Daily Weather History Graph

Daily Weather History Graph

Search for Another Location

Airport or City:

Trip Planner

Search our weather history database for the weather conditions in past years. The results will help you decide how hot, cold, wet, or windy it might be!

Date:

Astronomy

Feb. 21, 2012 Rise Set
Actual Time 7:17 AM EST 6:14 PM EST
Civil Twilight 6:50 AM EST 6:42 PM EST
Nautical Twilight 6:18 AM EST 7:13 PM EST
Astronomical Twilight 5:47 AM EST 7:45 PM EST
Moon 6:46 AM EST (2/21) 6:19 PM EST (2/21)
Length of Visible Light 11h 51m
Length of Day
10h 56m
Waning Crescent, 0% of the Moon is Illuminated
Feb 21
Waning Crescent
Feb 21
New
Feb 29
First Quarter
Mar 8
Full
Mar 14
Last Quarter

Hourly Weather History & Observations

Time (EST) Temp. Windchill Dew Point Humidity Pressure Visibility Wind Dir Wind Speed Gust Speed Precip Events Conditions
12:53 AM 35.1 °F 27.4 °F 19.0 °F 52% 30.11 in 10.0 mi SE 10.4 mph - N/A   Clear
1:53 AM 34.0 °F 27.2 °F 19.0 °F 54% 30.09 in 10.0 mi SE 8.1 mph - N/A   Clear
2:53 AM 33.1 °F 26.1 °F 19.9 °F 59% 30.06 in 10.0 mi SE 8.1 mph - N/A   Clear
3:53 AM 33.1 °F 27.7 °F 21.0 °F 61% 30.04 in 10.0 mi SE 5.8 mph - N/A   Clear
4:53 AM 33.1 °F 25.5 °F 21.9 °F 64% 29.99 in 10.0 mi SE 9.2 mph - N/A   Clear
5:53 AM 35.1 °F 26.9 °F 24.1 °F 64% 29.96 in 10.0 mi SSE 11.5 mph - N/A   Mostly Cloudy
6:53 AM 36.0 °F 27.1 °F 26.1 °F 67% 29.92 in 10.0 mi SSE 13.8 mph - N/A   Mostly Cloudy
7:53 AM 37.9 °F 28.5 °F 27.0 °F 65% 29.88 in 10.0 mi SSE 17.3 mph 28.8 mph N/A   Overcast
8:53 AM 36.0 °F 26.7 °F 32.0 °F 86% 29.88 in 9.0 mi South 15.0 mph 25.3 mph 0.01 in   Overcast
9:53 AM 37.9 °F 28.9 °F 32.0 °F 79% 29.84 in 10.0 mi South 16.1 mph 27.6 mph 0.00 in   Overcast
10:53 AM 37.9 °F 29.6 °F 33.1 °F 83% 29.81 in 8.0 mi South 13.8 mph - 0.01 in Rain Light Rain
11:29 AM 39.2 °F 32.5 °F 33.8 °F 81% 29.80 in 8.0 mi SSW 10.4 mph 18.4 mph 0.00 in Rain Light Rain
11:53 AM 41.0 °F 33.5 °F 36.0 °F 82% 29.81 in 10.0 mi South 13.8 mph - 0.01 in   Overcast
12:53 PM 48.0 °F - 41.0 °F 77% 29.79 in 10.0 mi SW 18.4 mph 27.6 mph N/A   Mostly Cloudy
1:53 PM 46.9 °F - 37.9 °F 71% 29.78 in 10.0 mi SW 19.6 mph 26.5 mph N/A   Overcast
2:53 PM 46.9 °F - 37.0 °F 68% 29.78 in 10.0 mi SW 17.3 mph 26.5 mph N/A   Overcast
3:53 PM 46.9 °F - 36.0 °F 66% 29.80 in 10.0 mi WSW 16.1 mph 27.6 mph N/A   Overcast
5:53 PM 46.0 °F 39.6 °F 35.1 °F 66% 29.81 in 10.0 mi SW 15.0 mph 24.2 mph N/A   Overcast
7:53 PM 46.0 °F 40.2 °F 34.0 °F 63% 29.83 in 10.0 mi SW 12.7 mph - N/A   Overcast
8:53 PM 45.0 °F 37.9 °F 36.0 °F 71% 29.84 in 10.0 mi SW 16.1 mph - 0.00 in Rain Light Rain
9:16 PM 44.6 °F 38.4 °F 37.4 °F 76% 29.82 in 10.0 mi SW 12.7 mph - 0.00 in   Overcast
9:53 PM 44.1 °F 37.1 °F 37.0 °F 76% 29.84 in 10.0 mi SW 15.0 mph 23.0 mph 0.00 in   Overcast
10:53 PM 43.0 °F 36.8 °F 37.0 °F 80% 29.85 in 10.0 mi SW 11.5 mph - N/A   Mostly Cloudy
11:53 PM 43.0 °F 38.2 °F 36.0 °F 76% 29.84 in 10.0 mi SW 8.1 mph - N/A   Partly Cloudy